Powrót do katalogu

STARLINK-32590

AktywnyŁącznośćVLEO
NORAD 63047·PAYLOAD·🇺🇸 United States

Wystrzelony Feb 18, 2025 z Cape Canaveral Space Force Station

Loading…

Następne Przeloty (najbliższe 24 godziny)

TLE

ŚwieżeSource: CelesTrak SupGP

Epoka: Sep 14, 2026, 20:42 UTC

1 63047C 25034U   26257.86298611 -.00035331  00000+0 -11363-2 0  2576
2 63047  53.1568  99.0774 0001236  91.4860 321.8589 15.31716126    16

Śledź STARLINK-32590 w czasie rzeczywistym z AllMySat

Download on the App Store